Regional Weather Roundup
Issued by NWS Charleston, SC

Current Version | Previous Version | Graphics & Text | Print | Product List | Glossary On
Versions: 1 2 3 4 5 6 7 8 9 10 11 12 13 14 15 16 17 18 19 20 21 22 23 24 25 26 27 28 29 30 31 32 33 34 35 36 37 38 39 40 41 42 43 44 45 46 47 48 49 50
000
ASUS42 KCHS 250713
RWRCHS

REGIONAL WEATHER ROUNDUP
NATIONAL WEATHER SERVICE CHARLESTON SC
300 AM EDT WED MAY 25 2016

NOTE: "FAIR" INDICATES FEW OR NO CLOUDS BELOW 12,000 FEET WITH NO
SIGNIFICANT WEATHER AND/OR OBSTRUCTIONS TO VISIBILITY.

NOT ALL STATIONS ARE QUALITY CONTROLLED. USE DATA WITH CAUTION...
ESPECIALLY DEWPOINT OBSERVATIONS.

SCZ027-030-031-034>040-042>050-250800-
...SOUTHEAST SOUTH CAROLINA...

CITY           SKY/WX    TMP DP  RH WIND       PRES   REMARKS
N CHARLESTON   PTCLDY    66  62  87 CALM      30.18S
WATERFRONT PRK   N/A     72  68  87 CALM      30.16F
MOUNT PLEASANT FAIR      63  63 100 CALM      30.19R
JOHNS ISLAND   FAIR      64  63  94 CALM      30.19R
PINOPOLIS        N/A     72  64  78 VRB2      30.09F
MONCKS CORNER  FAIR      59  55  88 CALM      30.18S
SUMMERVILLE    FAIR      61  61 100 CALM      30.19S
BEAUFORT MCAS  CLEAR     66  63  90 VRB3      30.18S
BEAUFORT ARPT  FAIR      70  64  83 CALM      30.18S
HILTON HEAD IS CLEAR     70  66  88 S3        30.19S
WALTERBORO     MOSUNNY   64  64 100 CALM      30.19S
ALLENDALE      PTSUNNY   68  64  88 CALM      30.18S

...SOUTHERN MIDLANDS AND PEE DEE...

CITY           SKY/WX    TMP DP  RH WIND       PRES   REMARKS
GEORGETOWN     FAIR      59  57  94 CALM      30.20S
KINGSTREE      FAIR      63  59  88 CALM      30.19R
ORANGEBURG     CLEAR     63  61  93 CALM      30.18S
BARNWELL       FAIR      70  70 100 CALM      30.19S
AIKEN          FAIR      64  63  94 S5        30.22R
MANNING        FAIR      64  63  94 CALM      30.18S
COLUMBIA       CLEAR     68  63  84 SW5       30.17R
SUMTER         CLEAR     64  61  91 S1        30.16S
FLORENCE       CLEAR     64  60  87 SW3       30.18S
MYRTLE BEACH   CLEAR     66  55  68 SW5       30.21S
N MYRTLE BEACH PTCLDY    65  61  87 W3        30.18S

$$

GAZ063-065-086>088-099>101-113>116-118-119-134>141-150-250800-
...SOUTHEAST GEORGIA...

CITY           SKY/WX    TMP DP  RH WIND       PRES   REMARKS
SAVANNAH ARPT  PTCLDY    69  65  86 CALM      30.18S
HUNTER AAF     PTCLDY    70  69  95 SW1       30.16S
FORT STEWART   CLEAR     65  63  93 CALM      30.16S
STATESBORO     PTCLDY    67  66  94 CALM      30.19S
SYLVANIA       MOSUNNY   68  66  93 CALM      30.19S
CLAXTON        FAIR      65  64  98 CALM      30.18F

...CSRA...CENTRAL AND FAR SOUTHEAST GEORGIA...

CITY           SKY/WX    TMP DP  RH WIND       PRES   REMARKS
THOMSON        CLEAR     60  60  99 CALM      30.21S
AUGUSTA-BUSH   CLEAR     60  59  96 CALM      30.17R FOG
AUGUSTA-DANIEL CLEAR     69  60  73 CALM      30.18S
SWAINSBORO     FAIR      66  61  82 CALM      30.19S
VIDALIA        CLEAR     68  63  83 S3        30.19S
EASTMAN        FAIR      61  61 100 CALM      30.21R
HAZLEHURST     FAIR      70  61  73 S5        30.17S
ALMA           MOCLDY    63  61  93 CALM      30.18S
WAYCROSS       MOCLDY    69  63  80 CALM      30.18S
JESUP          FAIR      59  55  88 CALM      30.19S
BAXLEY         FAIR      64  63  94 CALM      30.18S
BRUNSWICK      PTCLDY    70  68  94 CALM      30.19S FOG
SAINT SIMONS   CLEAR     75  65  70 SW6       30.17F

$$

SCZ027-028-034-036>038-045-046-048>050-GAZ119-141-250800-
...LAKE AND SUPPLEMENTAL COASTAL OBSERVATIONS...

STATION/POSITION TIME  TEMP    WIND        PRES    WAVE   SWELL
                       AIR SEA DIR/SP/G            HT/PER HT/PER/DIR
                 (UTC) (F)     (DEG/KT/KT) (MB)    (FT/S) (FT/S/D)
WINYAH BAY       NOT AVBL
LAKE MURRAY      0600   72     200/  9/ 11 1020.7F
ACE BASIN NERRS  NOT AVBL
FORT PULASKI     0600   74 76  180/  3/  5 1022.3S
SAPELO ISLAND    0600   73     190/  6     1022.0S

$$

ANZ835-935-AMZ111-154-330-350-352-354-370-450-454-472-250800-
...C-MAN AND BUOY OBSERVATIONS...

STATION/POSITION TIME  TEMP    WIND        PRES    WAVE   SWELL
                       AIR SEA DIR/SP/G            HT/PER HT/PER/DIR
                 (UTC) (F)     (DEG/KT/KT) (MB)    (FT/S) (FT/S/D)
BUOY 41004       0650   76 76  190/  6/  6 1021.9S   2/ 9   2/ 9
BUOY 41008       0650   76 75  180/  8/  8 1021.7F   2/ 9   2/110/ 9
FOLLY BEACH CMAN 0700   74     210/  6/  7 1022.3R
CAPERS NEARSHORE 0608   75 74  200/  8/ 10 1021.8F
FRIPP NEARSHORE  0608   75 75  210/  6/  8 1021.3F


STATION/POSITION TIME  TEMP    WIND        PRES    WAVE   SWELL
                       AIR SEA DIR/SP/G            HT/PER HT/PER/DIR
                 (UTC) (F)     (DEG/KT/KT) (MB)    (FT/S) (FT/S/D)
5E ST. MARYS GA  0621      78                N/A     2/10
FRYING PAN BUOY  0600   76 76  230/ 12/ 14 1021.9F
BUOY 41025       0650   70 70  250/ 12/ 14 1021.2R   3/ 5   2/ 90/ 8
CAPE LOOKOUT NC  0700   69     270/  8/  8 1021.3S
BUOY 41002       0650   73 78   10/  6/  8 1022.4R   4/ 8   3/ 30/ 8
BUOY 41010       0620   76 78   90/  6/  8 1022.0F
ST AUGUSTINE FL  0700   78 79  140/ 13/ 14 1022.6F


$$




USA.gov is the U.S. government's official web portal to all federal, state and local government web resources and services.